Погода в Торки

Великобритания     50°28′21″N   3°32′42″W
темп.,
°C
ветер,
м/с
пор.,
м/с
влажн.,
%
обл.,
%
осадки,
мм/ч
давл.,
гПа
погр.,
м
13 августа, сб
сб1301:00+20ссв11570 0.0 101611
04:00+19с33634 0.0 101521
07:00+19с46588 0.0 101479
10:00+23всв575244 0.0 1014304
13:00+23вюв475682 0.0 1013331
16:00+22вюв3560100 0.0 1012205
19:00+22св2257100 0.0 101188
22:00+21ссз2254100 0.0 101013
14 августа, вс
вс1401:00+20с3358100 0.1 101016
04:00+20с455368 0.0 100747
07:00+21ссв4651100 0.0 1007124
10:00+22всв5653100 0.0 1006222
13:00+21юв5570100 0.0 1006261
16:00+24ююз4456100 0.0 1005404
19:00+23ююз6862100 0.0 1003158
22:00+21зюз586866 0.0 1003131
15 августа, пн
пн1501:00+18юз2383100 0.0 100260
04:00+18юз3388100 0.0 100182
07:00+19зсз2273100 0.0 100171
10:00+21юз236298 0.1 1001291
13:00+24ююз145224 0.3 10011032
16:00+23з135852 1.9 1002339
19:00+23з685567 2.2 1002450
22:00+18зсз488291 0.0 1005221
16 августа, вт
вт1601:00+17з2286100 0.1 100568
04:00+16з2288100 0.6 100583
07:00+17ссз238794 0.7 1006132
10:00+18ссв328044 0.3 1008428
13:00+20юв4369100 0.3 1008699
16:00+20ю7669100 0.4 1009532
19:00+16юз2288100 1.9 1011133
22:00+17зсз2283100 0.1 101171
17 августа, ср
ср1701:00+17с238722 0.1 1012156
04:00+16ссв469241 0.0 1013245
07:00+17св5688100 0.0 1014558
10:00+17св6685100 0.1 1015638
13:00+19всв5774100 0.3 1016821
16:00+20в466857 0.1 1016630
19:00+20всв246699 0.1 1017193
22:00+19ссв357077 0.0 1018116